Oklahoma City / Page Muni, OK

6:56 AM CST on January 21, 2018 (GMT -0600)
Oklahoma City / Page Muni

Weather History for KRCE - January, 2013

Change the Weather History Date:

Saturday, January 5, 2013

  Actual Average (KPWA) Record (KPWA)
Temperature  
Mean Temperature 39 °F -  
Max Temperature 48 °F 37 °F 69 °F (2008)
Min Temperature 30 °F 18 °F -4 °F (1959)
Degree Days  
Heating Degree Days 26    
Moisture  
Dew Point 29 °F    
Average Humidity 70    
Maximum Humidity 87    
Minimum Humidity 46    
Precipitation  
Precipitation 0.00 in - - ()
Sea Level Pressure  
Sea Level Pressure 30.24 in    
Wind  
Wind Speed 11 mph (SW)    
Max Wind Speed 17 mph    
Max Gust Speed 24 mph    
Visibility 10 miles    
Events      
Averages and records for this station are not official NWS values.
T = Trace of Precipitation, MM = Missing Value Source: NWS Daily Summary

Daily Weather History Graph

Daily Weather History Graph

Search for Another Location

Airport or City:

Trip Planner

Search our weather history database for the weather conditions in past years. The results will help you decide how hot, cold, wet, or windy it might be!

Date:

Astronomy

Jan. 05, 2013 Rise Set
Actual Time 7:41 AM CST 5:32 PM CST
Civil Twilight 7:12 AM CST 6:01 PM CST
Nautical Twilight 6:41 AM CST 6:32 PM CST
Astronomical Twilight 6:10 AM CST 7:03 PM CST
Moon 12:56 AM CST (1/5) 12:17 PM CST (1/5)
Length of Visible Light 10h 48m
Length of Day
9h 51m
Last Quarter, 44% of the Moon is Illuminated
Jan 5
Last Quarter
Jan 11
New
Jan 18
First Quarter
Jan 26
Full
Feb 3
Last Quarter

Hourly Weather History & Observations

Time (CST) Temp. Windchill Dew Point Humidity Pressure Visibility Wind Dir Wind Speed Gust Speed Precip Events Conditions
12:15 AM 37.4 °F 29.3 °F 28.4 °F 70% 30.28 in 10.0 mi South 12.7 mph - N/A   Overcast
12:35 AM 37.4 °F 28.9 °F 28.4 °F 70% 30.27 in 10.0 mi South 13.8 mph 19.6 mph N/A   Overcast
12:55 AM 37.4 °F 30.3 °F 28.4 °F 70% 30.27 in 10.0 mi South 10.4 mph - N/A   Overcast
1:15 AM 35.6 °F 28.6 °F 28.4 °F 75% 30.27 in 10.0 mi South 9.2 mph - N/A   Overcast
1:35 AM 37.4 °F 30.3 °F 30.2 °F 75% 30.26 in 10.0 mi SSW 10.4 mph 16.1 mph N/A   Overcast
1:55 AM 37.4 °F 29.8 °F 30.2 °F 75% 30.26 in 10.0 mi South 11.5 mph - N/A   Overcast
2:15 AM 37.4 °F 29.8 °F 30.2 °F 75% 30.26 in 10.0 mi SSW 11.5 mph - N/A   Overcast
2:35 AM 37.4 °F 29.8 °F 32.0 °F 81% 30.26 in 10.0 mi SSW 11.5 mph - N/A   Overcast
2:55 AM 37.4 °F 28.9 °F 32.0 °F 81% 30.26 in 10.0 mi SSW 13.8 mph 18.4 mph N/A   Overcast
3:15 AM 37.4 °F 29.8 °F 32.0 °F 81% 30.26 in 10.0 mi SSW 11.5 mph - N/A   Overcast
3:35 AM 37.4 °F 29.3 °F 32.0 °F 81% 30.25 in 10.0 mi South 12.7 mph 18.4 mph N/A   Overcast
3:55 AM 37.4 °F 29.8 °F 32.0 °F 81% 30.24 in 10.0 mi South 11.5 mph - N/A   Overcast
4:15 AM 37.4 °F 29.8 °F 32.0 °F 81% 30.24 in 10.0 mi South 11.5 mph - N/A   Overcast
4:35 AM 37.4 °F 29.8 °F 32.0 °F 81% 30.23 in 10.0 mi South 11.5 mph - N/A   Overcast
4:55 AM 37.4 °F 30.8 °F 32.0 °F 81% 30.23 in 10.0 mi South 9.2 mph - N/A   Overcast
5:15 AM 37.4 °F 30.3 °F 32.0 °F 81% 30.23 in 10.0 mi South 10.4 mph - N/A   Overcast
5:35 AM 37.4 °F 29.8 °F 32.0 °F 81% 30.23 in 10.0 mi South 11.5 mph - N/A   Overcast
5:55 AM 35.6 °F 27.5 °F 32.0 °F 87% 30.22 in 10.0 mi South 11.5 mph 17.3 mph N/A   Overcast
6:35 AM 35.6 °F 26.2 °F 32.0 °F 87% 30.23 in 10.0 mi South 15.0 mph - N/A   Overcast
6:55 AM 35.6 °F 26.6 °F 32.0 °F 87% 30.23 in 10.0 mi SSW 13.8 mph 19.6 mph N/A   Overcast
7:15 AM 35.6 °F 27.1 °F 32.0 °F 87% 30.23 in 10.0 mi South 12.7 mph 17.3 mph N/A   Overcast
7:35 AM 35.6 °F 27.1 °F 32.0 °F 87% 30.24 in 10.0 mi South 12.7 mph - N/A   Overcast
7:55 AM 35.6 °F 28.0 °F 32.0 °F 87% 30.24 in 10.0 mi South 10.4 mph - N/A   Overcast
8:35 AM 35.6 °F 27.1 °F 32.0 °F 87% 30.24 in 10.0 mi SSW 12.7 mph - N/A   Overcast
8:55 AM 35.6 °F 25.9 °F 32.0 °F 87% 30.23 in 10.0 mi SSW 16.1 mph 19.6 mph N/A   Overcast
9:35 AM 37.4 °F 28.2 °F 32.0 °F 81% 30.23 in 10.0 mi SSW 16.1 mph - N/A   Overcast
9:55 AM 37.4 °F 29.3 °F 32.0 °F 81% 30.23 in 10.0 mi SSW 12.7 mph 19.6 mph N/A   Overcast
10:15 AM 39.2 °F 30.5 °F 32.0 °F 75% 30.24 in 10.0 mi SSW 16.1 mph 20.7 mph N/A   Overcast
10:35 AM 39.2 °F 31.6 °F 32.0 °F 75% 30.23 in 10.0 mi SW 12.7 mph - N/A   Overcast
10:55 AM 41.0 °F 32.5 °F 32.0 °F 70% 30.22 in 10.0 mi SW 17.3 mph 24.2 mph N/A   Overcast
11:15 AM 41.0 °F 34.3 °F 32.0 °F 70% 30.22 in 10.0 mi SW 11.5 mph 19.6 mph N/A   Overcast
11:35 AM 41.0 °F 33.5 °F 32.0 °F 70% 30.21 in 10.0 mi SW 13.8 mph 19.6 mph N/A   Overcast
11:55 AM 41.0 °F 33.9 °F 32.0 °F 70% 30.21 in 10.0 mi SW 12.7 mph 18.4 mph N/A   Mostly Cloudy
12:15 PM 44.6 °F 38.4 °F 32.0 °F 61% 30.20 in 10.0 mi SW 12.7 mph 16.1 mph N/A   Mostly Cloudy
12:35 PM 44.6 °F 39.2 °F 32.0 °F 61% 30.19 in 10.0 mi SW 10.4 mph 17.3 mph N/A   Mostly Cloudy
12:55 PM 44.6 °F 39.2 °F 32.0 °F 61% 30.19 in 10.0 mi WSW 10.4 mph 18.4 mph N/A   Partly Cloudy
1:35 PM 46.4 °F 42.4 °F 30.2 °F 53% 30.17 in 10.0 mi SW 8.1 mph - N/A   Clear
1:55 PM 48.2 °F - 30.2 °F 50% 30.17 in 10.0 mi WSW 10.4 mph 17.3 mph N/A   Clear
2:15 PM 46.4 °F 41.5 °F 28.4 °F 50% 30.16 in 10.0 mi WSW 10.4 mph 17.3 mph N/A   Clear
2:55 PM 48.2 °F - 28.4 °F 46% 30.17 in 10.0 mi West 11.5 mph 17.3 mph N/A   Clear
3:15 PM 48.2 °F - 28.4 °F 46% 30.17 in 10.0 mi WSW 9.2 mph - N/A   Clear
3:35 PM 48.2 °F - 28.4 °F 46% 30.18 in 10.0 mi WSW 11.5 mph - N/A   Clear
4:15 PM 48.2 °F - 28.4 °F 46% 30.18 in 10.0 mi WSW 6.9 mph - N/A   Clear
4:55 PM 46.4 °F 42.9 °F 30.2 °F 53% 30.20 in 10.0 mi West 6.9 mph - N/A   Clear
5:15 PM 44.6 °F 41.4 °F 28.4 °F 53% 30.20 in 10.0 mi West 5.8 mph - N/A   Clear
5:35 PM 42.8 °F 40.1 °F 30.2 °F 61% 30.21 in 10.0 mi WSW 4.6 mph - N/A   Clear
6:15 PM 39.2 °F 35.9 °F 28.4 °F 65% 30.23 in 10.0 mi West 4.6 mph - N/A   Clear
7:15 PM 39.2 °F 35.9 °F 28.4 °F 65% 30.24 in 10.0 mi WNW 4.6 mph - N/A   Partly Cloudy
7:35 PM 37.4 °F 28.9 °F 28.4 °F 70% 30.25 in 10.0 mi NNW 13.8 mph - N/A   Partly Cloudy
7:55 PM 37.4 °F 30.3 °F 24.8 °F 60% 30.26 in 10.0 mi NNW 10.4 mph - N/A   Clear
8:15 PM 35.6 °F 28.0 °F 24.8 °F 65% 30.26 in 10.0 mi NNW 10.4 mph - N/A   Clear
8:35 PM 35.6 °F 28.0 °F 23.0 °F 60% 30.27 in 10.0 mi NNW 10.4 mph - N/A   Clear
8:55 PM 35.6 °F 28.0 °F 23.0 °F 60% 30.27 in 10.0 mi NNW 10.4 mph - N/A   Clear
9:15 PM 35.6 °F 27.5 °F 23.0 °F 60% 30.28 in 10.0 mi NNW 11.5 mph 17.3 mph N/A   Clear
9:35 PM 33.8 °F 27.0 °F 23.0 °F 65% 30.30 in 10.0 mi NNW 8.1 mph - N/A   Clear
9:55 PM 32.0 °F 24.2 °F 23.0 °F 69% 30.30 in 10.0 mi NNW 9.2 mph - N/A   Clear
10:15 PM 32.0 °F 24.8 °F 23.0 °F 69% 30.31 in 10.0 mi NNW 8.1 mph - N/A   Clear
10:35 PM 32.0 °F 25.6 °F 23.0 °F 69% 30.31 in 10.0 mi NNW 6.9 mph - N/A   Clear
10:55 PM 30.2 °F 22.6 °F 23.0 °F 75% 30.32 in 10.0 mi NNW 8.1 mph - N/A   Clear
11:15 PM 30.2 °F 22.6 °F 23.0 °F 75% 30.32 in 10.0 mi NNW 8.1 mph - N/A   Clear
11:35 PM 30.2 °F 21.9 °F 23.0 °F 75% 30.33 in 10.0 mi NNW 9.2 mph - N/A   Clear
11:55 PM 32.0 °F 24.2 °F 23.0 °F 69% 30.33 in 10.0 mi NNW 9.2 mph - N/A   Clear